Location: Unspecified
(0.0000°N, 0.0000°E)
Time: 07:22:23
(UTC+00:00)

STARLINK-1065 - Pass Details

Date: 12 December 2019
Orbit: 547 x 550 km, 53.0° (Epoch: 11 July)

Event Time Altitude Azimuth Distance (km) Brightness Sun altitude
Rises 19:23:41 0° 208° (SSW) 2,720 8.0 -20.6°
Reaches altitude 10° 19:25:57 10° 204° (SSW) 1,824 6.9 -21.1°
Enters shadow 19:29:55 58° 133° (SE) 641 3.7 -22.0°
